Weather History for Arcata, CA

Change the Weather History Date:

Wednesday, March 5, 2014

  Actual Average Record
Temperature  
Mean Temperature 60 °F -  
Max Temperature 66 °F 53 °F 66 °F (2014)
Min Temperature 55 °F 37 °F 30 °F (1999)
Degree Days  
Heating Degree Days 4    
Growing Degree Days 10 (Base 50)    
Moisture  
Dew Point 53 °F    
Average Humidity 80    
Maximum Humidity 90    
Minimum Humidity 60    
Precipitation  
Precipitation 0.31 in - - ()
Sea Level Pressure  
Sea Level Pressure 29.89 in    
Wind  
Wind Speed 10 mph (South)    
Max Wind Speed 21 mph    
Max Gust Speed 36 mph    
Visibility 8 miles    
Events Rain    
Averages and records for this station are not official NWS values.
T = Trace of Precipitation, MM = Missing Value Source: NWS Daily Summary

Daily Weather History Graph

Daily Weather History Graph

Search for Another Location

Airport:

Trip Planner

Search our weather history database for the weather conditions in past years. The results will help you decide how hot, cold, wet, or windy it might be!

Date:

Astronomy

Mar. 05, 2014 Rise Set
Actual Time 6:44 AM PST 6:12 PM PST
Civil Twilight 6:16 AM PST 6:39 PM PST
Nautical Twilight 5:44 AM PST 7:11 PM PST
Astronomical Twilight 5:13 AM PST 7:43 PM PST
Moon 9:11 AM PST (3/5) 11:29 PM PST (3/5)
Length of Visible Light 12h 23m
Length of Day
11h 28m
Waxing Crescent, 24% of the Moon is Illuminated
Mar 5
Waxing Crescent
Mar 8
First Quarter
Mar 16
Full
Mar 23
Last Quarter
Mar 30
New

Hourly Weather History & Observations

Time (PST) Temp. Dew Point Humidity Pressure Visibility Wind Dir Wind Speed Gust Speed Precip Events Conditions
12:39 AM 57.9 °F 53.1 °F 84% 29.99 in 10.0 mi SSE 6.9 mph - 0.01 in Rain Light Rain
12:53 AM 57.9 °F 54.0 °F 87% 29.99 in 10.0 mi SSE 9.2 mph - 0.02 in Rain Light Rain
1:53 AM 59.0 °F 53.1 °F 81% 29.96 in 10.0 mi SSE 8.1 mph - 0.00 in   Mostly Cloudy
2:53 AM 57.0 °F 52.0 °F 83% 29.98 in 10.0 mi SSW 5.8 mph - N/A   Overcast
3:53 AM 57.0 °F 52.0 °F 83% 29.96 in 10.0 mi SE 5.8 mph - N/A   Overcast
4:53 AM 57.9 °F 52.0 °F 81% 29.95 in 10.0 mi SE 6.9 mph - 0.00 in Rain Light Rain
5:53 AM 57.0 °F 52.0 °F 83% 29.95 in 10.0 mi SSE 5.8 mph - 0.02 in Rain Light Rain
6:53 AM 57.0 °F 50.0 °F 77% 29.94 in 9.0 mi SE 6.9 mph - 0.01 in Rain Light Rain
7:53 AM 55.9 °F 51.1 °F 84% 29.94 in 10.0 mi ESE 5.8 mph - 0.04 in   Overcast
8:53 AM 57.9 °F 51.1 °F 78% 29.94 in 10.0 mi SSE 5.8 mph - N/A   Overcast
9:53 AM 61.0 °F 52.0 °F 72% 29.92 in 10.0 mi SSE 9.2 mph - N/A   Overcast
10:53 AM 62.1 °F 51.1 °F 67% 29.90 in 10.0 mi SSE 11.5 mph - N/A   Overcast
11:53 AM 64.0 °F 51.1 °F 63% 29.86 in 10.0 mi SSE 13.8 mph - N/A   Overcast
12:53 PM 66.0 °F 52.0 °F 60% 29.83 in 10.0 mi South 20.7 mph 29.9 mph N/A   Overcast
1:53 PM 66.0 °F 52.0 °F 60% 29.79 in 10.0 mi South 18.4 mph 35.7 mph N/A   Overcast
2:53 PM 61.0 °F 55.0 °F 81% 29.80 in 1.8 mi South 17.3 mph 32.2 mph 0.09 in Rain Rain
3:01 PM 61.0 °F 55.0 °F 81% 29.80 in 3.0 mi South 18.4 mph 25.3 mph 0.01 in Rain Light Rain
3:10 PM 61.0 °F 55.0 °F 81% 29.80 in 3.0 mi South 16.1 mph 24.2 mph 0.02 in Rain Light Rain
3:14 PM 60.1 °F 55.9 °F 86% 29.80 in 3.0 mi South 16.1 mph - 0.03 in Rain Light Rain
3:24 PM 60.1 °F 55.9 °F 86% 29.80 in 2.5 mi South 15.0 mph 24.2 mph 0.05 in Rain Rain
3:39 PM 60.1 °F 55.9 °F 86% 29.80 in 7.0 mi South 11.5 mph 23.0 mph 0.07 in Rain Light Rain
3:53 PM 60.1 °F 55.9 °F 86% 29.82 in 10.0 mi South 13.8 mph - 0.07 in   Overcast
4:53 PM 60.1 °F 55.9 °F 86% 29.83 in 3.0 mi South 16.1 mph - 0.03 in Rain Light Rain
5:01 PM 60.1 °F 55.9 °F 86% 29.82 in 2.5 mi South 16.1 mph - 0.01 in Rain Light Rain
5:15 PM 59.0 °F 55.9 °F 90% 29.82 in 5.0 mi South 12.7 mph 23.0 mph 0.02 in Rain Light Rain
5:53 PM 59.0 °F 55.9 °F 90% 29.85 in 10.0 mi South 13.8 mph - 0.02 in   Overcast
6:53 PM 59.0 °F 54.0 °F 83% 29.88 in 10.0 mi South 16.1 mph 25.3 mph 0.01 in   Overcast
7:53 PM 59.0 °F 53.1 °F 81% 29.90 in 9.0 mi SSW 19.6 mph 27.6 mph N/A   Mostly Cloudy
8:53 PM 57.9 °F 53.1 °F 84% 29.92 in 10.0 mi South 8.1 mph - N/A   Overcast
9:39 PM 57.0 °F 52.0 °F 83% 29.91 in 10.0 mi South 9.2 mph - N/A   Overcast
9:53 PM 57.9 °F 51.1 °F 78% 29.94 in 10.0 mi South 12.7 mph - N/A   Overcast
10:53 PM 57.9 °F 50.0 °F 75% 29.95 in 10.0 mi South 11.5 mph - N/A   Overcast
11:53 PM 55.9 °F 50.0 °F 80% 29.98 in 10.0 mi South 10.4 mph - N/A   Overcast